Home   Weather   Milton Keynes   Past weeks

Flag for United Kingdom Past Weather in Milton Keynes, England, United Kingdom — Yesterday and Last 2 Weeks

Now
54 °F

Cool.


Feels Like: 52 °F
Forecast: 53 / 75 °F
Wind: 7 mph from Southeast

Location: Luton Airport

Current Time: May 26, 2017 at 12:48:51 am

Latest Report: May 25, 2017 at 11:50 pm


Visibility: N/A

Pressure: 30.18 "Hg

Humidity: 82%

Dew Point: 48 °F

Location of Milton KeynesLocation

Past Weather in Milton Keynes — Graph

°F

Milton Keynes Temperature Yesterday

Maximum temperature yesterday: 75 °F (at 1:50 pm)
Minimum temperature yesterday: 52 °F (at 3:50 am)
Average temperature yesterday: 65 °F

High & Low Weather Summary for the Past Weeks

 TemperatureHumidityPressure
High75 °F (May 24, 3:20 pm)100% (May 12, 3:20 am)30.30 "Hg (May 12, 3:20 am)
Low39 °F (May 11, 1:20 am)38% (May 22, 4:50 pm)29.36 "Hg (May 11, 4:20 pm)
Average57 °F81%29.98 "Hg
* Reported May 10 11:20 pm — May 25 11:50 pm, Milton Keynes. Weather by CustomWeather, © 2017

Note: Actual official high and low records may vary slightly from our data, if they occured in-between our weather recording intervals... More about our weather records

Advertising

Milton Keynes Weather History for the Previous 24 Hours

Scroll right to see more
 ConditionsComfort  
Time TempWeatherWind HumidityBarometerVisibility
11:50 pm
Thu, May 25
54 °FCool.7 mph82%30.18 "HgN/A
11:20 pm55 °FCool.7 mph77%30.18 "HgN/A
10:50 pm57 °FCool.7 mph72%30.18 "HgN/A
10:20 pm57 °FCool.8 mph82%30.18 "HgN/A
9:50 pm59 °FCool.8 mph77%30.18 "HgN/A
9:20 pm61 °FCool.9 mph83%30.18 "HgN/A
8:50 pm63 °FMild.7 mph83%30.18 "HgN/A
8:20 pm64 °FMild.7 mph78%30.18 "HgN/A
7:50 pm68 °FMild.8 mph69%30.18 "HgN/A
7:20 pm68 °FMild.9 mph69%30.18 "HgN/A
6:50 pm70 °FMild.10 mph64%30.18 "HgN/A
6:20 pm72 °FMild.10 mph65%30.18 "HgN/A
5:50 pm72 °FMild.9 mph65%30.18 "HgN/A
5:20 pm73 °FMild.8 mph61%30.21 "HgN/A
4:50 pm73 °FPassing clouds.12 mph61%30.21 "HgN/A
4:20 pm73 °FScattered clouds.10 mph61%30.21 "HgN/A
3:50 pm75 °FMild.9 mph57%30.21 "HgN/A
3:20 pm75 °FScattered clouds.10 mph57%30.21 "HgN/A
2:50 pm75 °FScattered clouds.7 mph57%30.21 "HgN/A
2:20 pm75 °FPassing clouds.8 mph57%30.21 "HgN/A
1:50 pm75 °FScattered clouds.8 mph57%30.24 "HgN/A
1:20 pm73 °FPartly sunny.8 mph61%30.24 "HgN/A
12:50 pm73 °FPassing clouds.7 mph61%30.24 "HgN/A
12:20 pm73 °FPartly sunny.7 mph61%30.24 "HgN/A
11:50 am73 °FPassing clouds.6 mph65%30.27 "HgN/A
11:20 am73 °FPartly sunny.5 mph65%30.27 "HgN/A
10:50 am73 °FScattered clouds.6 mph61%30.27 "HgN/A
10:20 am73 °FScattered clouds.3 mph61%30.27 "HgN/A
9:50 am72 °FMild.3 mph69%30.27 "HgN/A
9:20 am72 °FMild.2 mph69%30.27 "HgN/A
8:50 am70 °FMild.3 mph73%30.27 "HgN/A
8:20 am70 °FMild.2 mph73%30.27 "HgN/A
7:50 am68 °FMild.2 mph78%30.27 "HgN/A
7:20 am64 °FMild.1 mph88%30.27 "Hg6 mi
6:50 am61 °FCool.2 mph100%30.27 "Hg4 mi
6:20 am57 °FFog.2 mph100%30.27 "Hg3 mi
5:50 am54 °FFog.2 mph100%30.24 "Hg3 mi
5:20 am52 °FFog.2 mph100%30.24 "Hg2 mi
4:50 am52 °FFog.2 mph100%30.24 "Hg1 mi
4:20 am52 °FFog.2 mph100%30.24 "Hg2 mi
3:50 am52 °FFog.1 mph100%30.27 "Hg2 mi
3:20 am55 °FFog.1 mph94%30.27 "Hg2 mi
2:50 am55 °FFog.2 mph94%30.27 "Hg2 mi
2:20 am55 °FFog.1 mph100%30.27 "Hg2 mi
1:50 am55 °FCool.2 mph94%30.27 "Hg4 mi
1:20 am55 °FCool.2 mph94%30.27 "HgN/A
12:50 am57 °FCool.3 mph88%30.27 "HgN/A
12:20 am59 °FCool.5 mph88%30.27 "HgN/A
Weather by CustomWeather, © 2017

See weather overviewHow to use our weather pages